When you browse on this site, cookies collect data to enhance your experience and personalize the content and advertising you see.
Visit our Privacy Policy to learn more. By continuing to use the site, you agree to this use of cookies and data.
  • en Belgique
  • Liste des pays
  • À 7 jours
  • Température de l'eau
  • Carte satellitaire
  • Carte météo
  • Widgets météo
  • user-avatar
    Se connecter

    Météo par heure à Côte de l'Or

    Ce jour, 23 Février, Samedi

    Heure Température Précipitation Vent Pression Humidité
    00:00 +23°C° 0 mm 8 m/s 754 mmHg 70%
    01:00 +23°C° 0 mm 8 m/s 754 mmHg 70%
    02:00 +23°C° 0.1 mm 8 m/s 754 mmHg 72%
    03:00 +23°C° 0.1 mm 8 m/s 754 mmHg 73%
    04:00 +22°C° 0 mm 6 m/s 754 mmHg 71%
    05:00 +23°C° 0 mm 7 m/s 754 mmHg 71%
    06:00 +23°C° 0 mm 8 m/s 755 mmHg 70%
    07:00 +23°C° 0 mm 9 m/s 755 mmHg 70%
    08:00 +26°C° 0 mm 9 m/s 755 mmHg 62%
    09:00 +27°C° 0 mm 9 m/s 755 mmHg 55%
    10:00 +29°C° 0 mm 9 m/s 756 mmHg 45%
    11:00 +31°C° 0 mm 9 m/s 756 mmHg 44%
    12:00 +31°C° 0 mm 9 m/s 756 mmHg 42%
    13:00 +31°C° 0 mm 10 m/s 756 mmHg 41%
    14:00 +31°C° 0 mm 10 m/s 756 mmHg 43%
    15:00 +29°C° 0 mm 10 m/s 756 mmHg 45%
    16:00 +28°C° 0 mm 9 m/s 756 mmHg 48%
    17:00 +27°C° 0 mm 9 m/s 757 mmHg 53%
    18:00 +26°C° 0 mm 9 m/s 757 mmHg 58%
    19:00 +24°C° 0 mm 8 m/s 758 mmHg 63%
    20:00 +23°C° 0 mm 8 m/s 758 mmHg 65%
    21:00 +23°C° 0 mm 8 m/s 758 mmHg 67%
    22:00 +23°C° 0 mm 8 m/s 759 mmHg 70%
    23:00 +23°C° 0.1 mm 8 m/s 758 mmHg 71%

    Demain, 24 Février, Dimanche

    Heure Température Précipitation Vent Pression Humidité
    00:00 +23°C° 0.1 mm 8 m/s 758 mmHg 72%
    01:00 +23°C° 0.1 mm 8 m/s 758 mmHg 73%
    02:00 +22°C° 0.1 mm 8 m/s 758 mmHg 73%
    03:00 +22°C° 0.1 mm 8 m/s 758 mmHg 73%
    04:00 +22°C° 0.1 mm 8 m/s 758 mmHg 73%
    05:00 +23°C° 0.1 mm 8 m/s 759 mmHg 72%
    06:00 +23°C° 0.1 mm 8 m/s 759 mmHg 70%
    07:00 +24°C° 0.1 mm 9 m/s 759 mmHg 69%
    08:00 +24°C° 0.1 mm 9 m/s 760 mmHg 64%
    09:00 +26°C° 0.1 mm 9 m/s 760 mmHg 59%
    10:00 +27°C° 0.1 mm 9 m/s 760 mmHg 54%
    11:00 +28°C° 0 mm 9 m/s 760 mmHg 53%
    12:00 +28°C° 0 mm 9 m/s 760 mmHg 52%
    13:00 +28°C° 0 mm 9 m/s 760 mmHg 51%
    14:00 +28°C° 0 mm 9 m/s 760 mmHg 51%
    15:00 +28°C° 0 mm 9 m/s 760 mmHg 51%
    16:00 +28°C° 0 mm 9 m/s 760 mmHg 51%
    17:00 +27°C° 0.1 mm 9 m/s 760 mmHg 56%
    18:00 +24°C° 0.1 mm 8 m/s 760 mmHg 61%
    19:00 +23°C° 0.1 mm 8 m/s 761 mmHg 66%
    20:00 +23°C° 0.1 mm 8 m/s 761 mmHg 68%
    21:00 +23°C° 0.1 mm 8 m/s 762 mmHg 69%
    22:00 +22°C° 0.1 mm 8 m/s 762 mmHg 71%
    23:00 +22°C° 0.1 mm 8 m/s 762 mmHg 72%

    Après-demain, 25 Février, Lundi

    Heure Température Précipitation Vent Pression Humidité
    00:00 +22°C° 0.1 mm 7 m/s 761 mmHg 72%
    01:00 +22°C° 0.1 mm 7 m/s 761 mmHg 73%
    02:00 +22°C° 0.1 mm 7 m/s 761 mmHg 74%
    03:00 +22°C° 0.1 mm 7 m/s 761 mmHg 75%
    04:00 +22°C° 0.1 mm 7 m/s 760 mmHg 75%
    05:00 +22°C° 0.1 mm 8 m/s 761 mmHg 74%
    06:00 +22°C° 0.1 mm 8 m/s 761 mmHg 72%
    07:00 +23°C° 0.1 mm 8 m/s 762 mmHg 71%
    08:00 +24°C° 0.1 mm 8 m/s 762 mmHg 65%
    09:00 +26°C° 0.1 mm 8 m/s 762 mmHg 59%
    10:00 +27°C° 0.1 mm 8 m/s 763 mmHg 53%
    11:00 +27°C° 0.1 mm 8 m/s 762 mmHg 52%
    12:00 +28°C° 0.1 mm 8 m/s 762 mmHg 52%
    13:00 +28°C° 0.1 mm 7 m/s 762 mmHg 51%
    14:00 +27°C° 0 mm 7 m/s 761 mmHg 52%
    15:00 +27°C° 0 mm 7 m/s 761 mmHg 53%
    16:00 +27°C° 0 mm 7 m/s 761 mmHg 54%
    17:00 +26°C° 0.1 mm 7 m/s 761 mmHg 59%
    18:00 +24°C° 0.1 mm 6 m/s 762 mmHg 64%
    19:00 +22°C° 0.1 mm 6 m/s 762 mmHg 70%
    20:00 +22°C° 0.1 mm 6 m/s 762 mmHg 73%
    21:00 +21°C° 0.1 mm 5 m/s 762 mmHg 75%
    22:00 +21°C° 0.1 mm 5 m/s 763 mmHg 78%
    23:00 +21°C° 0.1 mm 5 m/s 762 mmHg 80%

    26 Février, Mardi

    Heure Température Précipitation Vent Pression Humidité
    00:00 +21°C° 0.1 mm 5 m/s 762 mmHg 82%
    01:00 +20°C° 0.1 mm 5 m/s 761 mmHg 84%
    02:00 +20°C° 0.1 mm 5 m/s 761 mmHg 84%
    03:00 +20°C° 0.1 mm 4 m/s 761 mmHg 85%
    04:00 +20°C° 0.1 mm 4 m/s 760 mmHg 86%
    05:00 +21°C° 0 mm 4 m/s 761 mmHg 83%
    06:00 +21°C° 0 mm 5 m/s 761 mmHg 80%
    07:00 +22°C° 0 mm 5 m/s 761 mmHg 78%
    08:00 +25°C° 0.2 mm 5 m/s 761 mmHg 71%
    09:00 +26°C° 0.2 mm 5 m/s 762 mmHg 65%
    10:00 +28°C° 0.2 mm 5 m/s 762 mmHg 58%
    11:00 +28°C° 0.3 mm 5 m/s 761 mmHg 61%
    12:00 +27°C° 0.3 mm 5 m/s 761 mmHg 63%
    13:00 +27°C° 0.3 mm 5 m/s 760 mmHg 65%
    14:00 +27°C° 0.2 mm 4 m/s 760 mmHg 67%
    15:00 +27°C° 0.2 mm 4 m/s 760 mmHg 69%
    16:00 +26°C° 0.2 mm 4 m/s 760 mmHg 70%
    17:00 +25°C° 0.2 mm 4 m/s 760 mmHg 76%
    18:00 +23°C° 0.2 mm 4 m/s 760 mmHg 81%
    19:00 +22°C° 0.2 mm 3 m/s 761 mmHg 87%
    20:00 +22°C° 0.1 mm 3 m/s 761 mmHg 88%
    21:00 +21°C° 0.1 mm 3 m/s 761 mmHg 88%
    22:00 +21°C° 0.1 mm 3 m/s 761 mmHg 89%
    23:00 +21°C° 0.1 mm 3 m/s 761 mmHg 90%

    27 Février, Mercredi

    Heure Température Précipitation Vent Pression Humidité
    00:00 +21°C° 0.1 mm 3 m/s 761 mmHg 91%
    01:00 +21°C° 0.1 mm 3 m/s 760 mmHg 91%
    02:00 +20°C° 0.2 mm 3 m/s 760 mmHg 92%
    03:00 +20°C° 0.2 mm 3 m/s 760 mmHg 92%
    04:00 +20°C° 0.2 mm 3 m/s 760 mmHg 93%
    05:00 +21°C° 0.1 mm 3 m/s 760 mmHg 91%
    06:00 +21°C° 0.1 mm 3 m/s 760 mmHg 90%
    07:00 +22°C° 0.1 mm 3 m/s 761 mmHg 89%
    08:00 +23°C° 0.3 mm 4 m/s 761 mmHg 81%
    09:00 +26°C° 0.3 mm 4 m/s 761 mmHg 73%
    10:00 +28°C° 0.3 mm 5 m/s 761 mmHg 65%
    11:00 +28°C° 0.2 mm 5 m/s 761 mmHg 62%
    12:00 +29°C° 0.2 mm 5 m/s 761 mmHg 58%
    13:00 +29°C° 0.2 mm 5 m/s 760 mmHg 55%
    14:00 +29°C° 0.1 mm 6 m/s 760 mmHg 57%
    15:00 +28°C° 0.1 mm 6 m/s 760 mmHg 60%
    16:00 +28°C° 0.1 mm 6 m/s 760 mmHg 62%
    17:00 +26°C° 0.2 mm 5 m/s 761 mmHg 70%
    18:00 +25°C° 0.2 mm 5 m/s 761 mmHg 78%
    19:00 +22°C° 0.2 mm 5 m/s 761 mmHg 86%
    20:00 +22°C° 0.3 mm 5 m/s 762 mmHg 87%
    21:00 +21°C° 0.3 mm 5 m/s 762 mmHg 88%
    22:00 +21°C° 0.3 mm 5 m/s 762 mmHg 90%
    23:00 +21°C° 0.3 mm 5 m/s 762 mmHg 90%

    28 Février, Jeudi

    Heure Température Précipitation Vent Pression Humidité
    00:00 +21°C° 0.3 mm 4 m/s 761 mmHg 91%
    01:00 +21°C° 0.3 mm 4 m/s 761 mmHg 92%
    02:00 +21°C° 0.2 mm 4 m/s 761 mmHg 92%
    03:00 +20°C° 0.2 mm 4 m/s 761 mmHg 92%
    04:00 +20°C° 0.2 mm 4 m/s 761 mmHg 92%
    05:00 +21°C° 0.1 mm 4 m/s 761 mmHg 90%
    06:00 +21°C° 0.1 mm 4 m/s 762 mmHg 88%
    07:00 +22°C° 0.1 mm 4 m/s 762 mmHg 86%
    08:00 +23°C° 0.2 mm 5 m/s 762 mmHg 78%
    09:00 +26°C° 0.2 mm 5 m/s 762 mmHg 69%
    10:00 +28°C° 0.2 mm 5 m/s 762 mmHg 61%
    11:00 +28°C° 0.1 mm 6 m/s 762 mmHg 57%
    12:00 +29°C° 0.1 mm 6 m/s 762 mmHg 54%
    13:00 +30°C° 0.1 mm 6 m/s 761 mmHg 50%
    14:00 +29°C° 0 mm 6 m/s 761 mmHg 52%
    15:00 +29°C° 0 mm 6 m/s 761 mmHg 54%
    16:00 +28°C° 0 mm 6 m/s 761 mmHg 55%
    17:00 +27°C° 0.1 mm 6 m/s 761 mmHg 63%
    18:00 +26°C° 0.1 mm 5 m/s 762 mmHg 70%
    19:00 +23°C° 0.1 mm 5 m/s 762 mmHg 77%
    20:00 +23°C° 0.3 mm 5 m/s 762 mmHg 81%
    21:00 +22°C° 0.3 mm 5 m/s 762 mmHg 86%
    22:00 +21°C° 0.3 mm 5 m/s 762 mmHg 91%
    23:00 +21°C° 0 mm 4 m/s 762 mmHg 90%
    Voir plus